Home > Weather > Jackson > Past weeks

Flag for USA Past Weather in Jackson, Mississippi, USA — Yesterday and Last 2 Weeks

Now
74 °F

Fog.


Feels Like: 70 °F
Forecast: 73 / 92 °F
Wind: No wind

Location: Hawkins Field

Current Time: Jun 29, 2016 at 4:11:08 AM

Latest Report: Jun 29, 2016 at 2:53 AM


Visibility: 6 mi

Pressure: 29.94 "Hg

Humidity: 97%

Dew Point: 73 °F

Location of JacksonLocation

Past Weather in Jackson — Graph

°F

Jackson Temperature Yesterday

Maximum temperature yesterday: 85 °F (at 12:53 PM)
Minimum temperature yesterday: 73 °F (at 5:53 AM)
Average temperature yesterday: 78 °F

High & Low Weather Summary for the Past Weeks

 TemperatureHumidityPressure
High97 °F (Jun 26, 3:53 PM)97% (Jun 15, 4:53 AM)30.24 "Hg (Jun 15, 4:53 AM)
Low70 °F (Jun 18, 1:53 AM)37% (Jun 27, 12:53 PM)29.86 "Hg (Jun 14, 3:53 PM)
Average82 °F73%30.03 "Hg
* Reported Jun 14 2:53 AM — Jun 29 2:53 AM, Jackson, Weather by CustomWeather, © 2016

Note: Actual official high and low records may vary slightly from our data, if they occured in-between our weather recording intervals... More about our weather records

Advertising

Jackson Weather History for the Previous 24 Hours

Scroll right to see more
 ConditionsComfort  
Time TempWeatherWind HumidityBarometerVisibility
2:53 AM
Wed, Jun 29
74 °FFog.No wind97%29.94 "Hg6 mi
1:53 AM75 °FFog.No wind94%29.94 "Hg5 mi
12:53 AM75 °FFog.No wind96%29.96 "Hg5 mi
11:53 PM
Tue, Jun 28
76 °FPassing clouds.No wind94%29.98 "Hg7 mi
10:53 PM77 °FClear.No wind90%29.98 "Hg10 mi
9:53 PM78 °FClear.3 mph87%29.98 "Hg10 mi
8:53 PM78 °FSunny.No wind90%29.97 "Hg10 mi
7:53 PM80 °FPassing clouds.5 mph81%29.97 "Hg10 mi
6:53 PM80 °FSunny.3 mph87%29.95 "Hg10 mi
6:04 PM79 °FSunny.No wind88%29.97 "Hg10 mi
5:53 PM79 °FThunderstorms. Sunny.3 mph88%29.94 "Hg10 mi
4:53 PM79 °FSunny.3 mph88%29.93 "Hg10 mi
3:53 PM76 °FLight rain. Mostly cloudy.No wind94%29.95 "Hg8 mi
2:53 PM76 °FRain. Fog.8 mph94%29.96 "Hg2 mi
1:53 PM85 °FScattered clouds.No wind68%29.98 "Hg10 mi
12:53 PM85 °FBroken clouds.6 mph68%29.99 "Hg10 mi
11:53 AM83 °FBroken clouds.7 mph72%30.01 "Hg10 mi
10:53 AM83 °FSunny.6 mph72%30.01 "Hg10 mi
9:53 AM80 °FPartly sunny.6 mph79%30.01 "Hg10 mi
8:53 AM78 °FPartly sunny.6 mph82%30.01 "Hg10 mi
7:53 AM76 °FPassing clouds.5 mph88%30.01 "Hg10 mi
6:53 AM74 °FOvercast.5 mph91%30.00 "Hg10 mi
5:53 AM73 °FClear.5 mph94%30.00 "Hg10 mi
4:53 AM74 °FPassing clouds.3 mph91%29.99 "Hg10 mi
Weather by CustomWeather, © 2016

See weather overviewHow to use our weather pages